This is the latest recevied weather packets stored in our database for station/object K5MGY. If no packets are shown the sender has not sent any weather packets the latest 10 day(s).
| Time | Temp. | Humidity | Pressure | Rain* | Wind** | Luminosity | Snow |
|---|---|---|---|---|---|---|---|
| 1777428135 | 25.56° C | 88% | 1033.1 hPa | 0 mm | - | 0 W/m² | - |
| 1777427831 | 25.56° C | 88% | 1033 hPa | 0 mm | - | 0 W/m² | - |
| 1777427528 | 25.56° C | 87% | 1032.8 hPa | 0 mm | - | 0 W/m² | - |
| 1777427223 | 25.56° C | 87% | 1032.9 hPa | 0 mm | - | 0 W/m² | - |
| 1777426921 | 25.56° C | 87% | 1032.8 hPa | 0 mm | - | 0 W/m² | - |
| 1777426619 | 25.56° C | 87% | 1032.9 hPa | 0 mm | - | 0 W/m² | - |
| 1777426314 | 25.56° C | 88% | 1032.8 hPa | 0 mm | - | 0 W/m² | - |
| 1777426010 | 25.56° C | 88% | 1032.9 hPa | 0 mm | - | 0 W/m² | - |
| 1777425704 | 25.56° C | 88% | 1032.4 hPa | 0 mm | - | 0 W/m² | - |
| 1777425400 | 25.56° C | 88% | 1032.7 hPa | 0 mm | - | 1 W/m² | - |
| 1777425097 | 25.56° C | 89% | 1032.7 hPa | 0 mm | - | 2 W/m² | - |
| 1777424793 | 25.56° C | 89% | 1032.4 hPa | 0 mm | - | 5 W/m² | - |
| 1777424488 | 25.56° C | 88% | 1032.4 hPa | 0 mm | - | 6 W/m² | - |
| 1777424184 | 25.56° C | 87% | 1032.1 hPa | 0 mm | - | 8 W/m² | - |
| 1777423882 | 25.56° C | 86% | 1031.8 hPa | 0 mm | - | 13 W/m² | - |
| 1777423578 | 25.56° C | 86% | 1031.8 hPa | 0 mm | - | 16 W/m² | - |
| 1777423274 | 25.56° C | 87% | 1032.2 hPa | 0 mm | - | 17 W/m² | - |
| 1777422969 | 25.56° C | 87% | 1032.4 hPa | 0 mm | - | 20 W/m² | - |
| 1777422663 | 25.56° C | 87% | 1032.6 hPa | 0 mm | - | 26 W/m² | - |
| 1777422359 | 25° C | 89% | 1032.9 hPa | 0 mm | - | 28 W/m² | - |
| 1777422054 | 25.56° C | 90% | 1032.9 hPa | 0 mm | - | 18 W/m² | - |
| 1777421749 | 25.56° C | 90% | 1032.9 hPa | 0 mm | - | 15 W/m² | - |
| 1777421445 | 25.56° C | 90% | 1033.2 hPa | 1.78 mm | - | 13 W/m² | - |
| 1777421141 | 25.56° C | 90% | 1033.9 hPa | 1.78 mm | - | 7 W/m² | - |
| 1777420837 | 25.56° C | 90% | 1033.6 hPa | 0 mm | - | 6 W/m² | - |
* Rain latest hour (hover to see other rain measurements)
** Current wind speed in m/s (hover to see current wind gust speed)